Kodiak, AK

10:43 PM AKDT on August 23, 2016 (GMT -0800)
Kodiak

Weather History for PADQ - May, 2013

Change the Weather History Date:

Saturday, May 11, 2013

  Actual Average Record
Temperature  
Mean Temperature 44 °F 44 °F  
Max Temperature 46 °F 49 °F 72 °F (1968)
Min Temperature 42 °F 38 °F 29 °F (2001)
Degree Days  
Heating Degree Days 21 22  
Month to date heating degree days 264 249  
Since 1 July heating degree days 8134 7941  
Cooling Degree Days 0    
Month to date cooling degree days 0  
Year to date cooling degree days 0  
Moisture  
Dew Point 39 °F    
Average Humidity 0    
Maximum Humidity 0    
Minimum Humidity 0    
Precipitation  
Precipitation 0.16 in 0.16 in 1.59 in (1983)
Month to date precipitation 0.73 1.88  
Year to date precipitation 23.95 27.65  
Snow  
Snow 0.00 in 0.00 in 0.80 in (1986)
Month to date snowfall 0.9 0.2  
Snow Depth 0.00 in    
Sea Level Pressure  
Sea Level Pressure 29.71 in    
Wind  
Wind Speed 10 mph (NW)    
Max Wind Speed 17 mph    
Max Gust Speed 22 mph    
Visibility 9 miles    
Events Rain    
T = Trace of Precipitation, MM = Missing Value Source: NWS Daily Summary

Daily Weather History Graph

Daily Weather History Graph

Search for Another Location

Airport or City:

Trip Planner

Search our weather history database for the weather conditions in past years. The results will help you decide how hot, cold, wet, or windy it might be!

Date:

Astronomy

May. 11, 2013 Rise Set
Actual Time 5:54 AM AKDT 10:19 PM AKDT
Civil Twilight 5:01 AM AKDT 11:12 PM AKDT
Nautical Twilight 3:36 AM AKDT 12:41 AM AKDT
Astronomical Twilight Sun does not set Sun does not set
Moon 7:03 AM AKDT (5/11) No Moon Set
Length of Visible Light 18h 11m
Length of Day
16h 25m
Waxing Crescent, 3% of the Moon is Illuminated
May 11
Waxing Crescent
May 17
First Quarter
May 24
Full
May 31
Last Quarter
Jun 8
New

Hourly Weather History & Observations

Time (AKDT) Temp. Windchill Dew Point Humidity Pressure Visibility Wind Dir Wind Speed Gust Speed Precip Events Conditions
12:53 AM 43.0 °F 38.8 °F 37.9 °F 82% 29.92 in 10.0 mi NW 6.9 mph - N/A   Overcast
1:53 AM 43.0 °F 38.8 °F 37.9 °F 82% 29.90 in 10.0 mi NW 6.9 mph - N/A   Overcast
2:02 AM 42.8 °F 38.0 °F 37.4 °F 81% 29.90 in 10.0 mi NNW 8.1 mph - N/A   Overcast
2:53 AM 42.1 °F 37.1 °F 39.0 °F 89% 29.88 in 7.0 mi NW 8.1 mph - N/A   Overcast
3:11 AM 42.8 °F 36.6 °F 39.2 °F 87% 29.86 in 7.0 mi NW 11.5 mph - N/A   Overcast
3:53 AM 42.1 °F 34.9 °F 39.0 °F 89% 29.85 in 10.0 mi WNW 13.8 mph - 0.00 in Rain Light Rain
4:53 AM 42.1 °F 34.9 °F 39.0 °F 89% 29.82 in 10.0 mi WNW 13.8 mph - 0.00 in Rain Light Rain
5:53 AM 42.1 °F 35.2 °F 39.0 °F 89% 29.80 in 9.0 mi WNW 12.7 mph - 0.02 in Rain Light Rain
6:53 AM 43.0 °F 36.4 °F 39.0 °F 86% 29.78 in 8.0 mi WNW 12.7 mph - 0.04 in Rain Light Rain
7:53 AM 43.0 °F 36.4 °F 39.0 °F 86% 29.77 in 7.0 mi WNW 12.7 mph - 0.06 in Rain Light Rain
8:53 AM 43.0 °F 36.0 °F 39.9 °F 89% 29.75 in 10.0 mi WNW 13.8 mph - 0.03 in Rain Light Rain
9:43 AM 42.8 °F 37.0 °F 39.2 °F 87% 29.74 in 10.0 mi NNW 10.4 mph - 0.00 in Rain Light Rain
9:53 AM 44.1 °F 40.1 °F 39.0 °F 82% 29.74 in 10.0 mi NW 6.9 mph 17.3 mph 0.00 in Rain Light Rain
10:35 AM 44.6 °F 38.8 °F 39.2 °F 81% 29.73 in 7.0 mi NW 11.5 mph 16.1 mph 0.00 in Rain Light Rain
10:53 AM 44.1 °F 39.5 °F 39.9 °F 85% 29.72 in 7.0 mi NW 8.1 mph - 0.00 in Rain Light Rain
11:53 AM 45.0 °F 42.6 °F 41.0 °F 86% 29.71 in 9.0 mi NNE 4.6 mph - 0.01 in Rain Light Rain
12:53 PM 45.0 °F 41.8 °F 41.0 °F 86% 29.70 in 10.0 mi North 5.8 mph - 0.00 in   Overcast
1:53 PM 45.0 °F 40.6 °F 39.9 °F 82% 29.68 in 10.0 mi NNW 8.1 mph - N/A   Overcast
2:53 PM 46.0 °F 41.0 °F 41.0 °F 83% 29.65 in 10.0 mi NW 10.4 mph - 0.00 in   Overcast
3:53 PM 46.9 °F - 39.9 °F 77% 29.63 in 10.0 mi NW 5.8 mph - N/A   Overcast
4:53 PM 46.9 °F - 39.9 °F 77% 29.60 in 10.0 mi WNW 10.4 mph - 0.00 in   Overcast
5:53 PM 46.0 °F 41.0 °F 41.0 °F 83% 29.58 in 9.0 mi WNW 10.4 mph - 0.01 in Rain Light Rain
6:53 PM 46.9 °F - 41.0 °F 80% 29.56 in 10.0 mi NW 11.5 mph - 0.00 in   Overcast
7:53 PM 45.0 °F 39.3 °F 39.9 °F 82% 29.55 in 10.0 mi NW 11.5 mph - 0.00 in Rain Light Rain
8:53 PM 44.1 °F 37.4 °F 39.9 °F 85% 29.55 in 10.0 mi NW 13.8 mph - 0.00 in Rain Light Rain
9:53 PM 44.1 °F 36.8 °F 39.0 °F 82% 29.54 in 10.0 mi NW 16.1 mph 23.0 mph 0.01 in Rain Light Rain
10:53 PM 44.1 °F 40.1 °F 39.9 °F 85% 29.55 in 8.0 mi NNW 6.9 mph - 0.02 in Rain Light Rain
11:53 PM 44.1 °F 39.5 °F 39.9 °F 85% 29.55 in 7.0 mi NW 8.1 mph - 0.03 in Rain Light Rain